Погода в Пылве

Эстония     58°03′25″N   27°04′01″E
темп.,
°C
ветер,
м/с
пор.,
м/с
влажн.,
%
обл.,
%
осадки,
мм/ч
давл.,
гПа
погр.,
м
5 марта, пт
пт523:00−3зсз378141 0.1 1009491
02:00−3зсз488971 1.9 1009606
05:00−4ссз599098 1.3 1010753
08:00−5сз487383 1.4 1012847
11:00−3ссз475675 0.0 10141196
14:00−1сз464144 0.1 10152000
17:00−2сз3548100 0.1 10161363
20:00−5сз286261 0.2 1018307
6 марта, сб
сб623:00−5зсз27700 0.0 1019259
02:00−6зсз25780 0.0 1020181
05:00−6з26830 0.0 1019199
08:00−5зюз49797 0.0 1019454
11:00−2зюз6106065 0.0 10171058
14:000зюз8155983 0.0 10131428
17:00+1зюз81854100 0.1 10081479
20:000зюз91866100 0.1 10041311
7 марта, вс
вс723:00−1зюз81693100 0.9 10001149
02:00−2зсз51186100 3.1 9971057
05:00−6сз81588100 1.6 9951448
08:00−6з7177883 1.8 9961828
11:00−3з81487100 0.7 9941330
14:00−3з81565100 1.1 9931843
17:00−5сз91576100 1.1 9961527
20:00−8ссз5127385 1.3 10011065
8 марта, пн
пн823:00−8сз4107784 0.0 1004811
02:00−8сз4118675 0.0 1006512
05:00−8ссз498398 0.1 1008889
08:00−9ссз5108599 0.1 1010805
11:00−7ссз5977100 0.1 1013939
14:00−6с5865100 0.1 10151176
17:00−7ссз486783 0.0 10161207
20:00−10сз278460 0.0 1018200
9 марта, вт
вт923:00−10зсз24870 0.0 101995
02:00−9зюз378727 0.0 1019192
05:00−7зюз5137996 0.0 1017572
08:00−4з6147598 0.0 10161051
11:00−1зсз71266100 0.0 10161287
14:000з61166100 0.1 10161464
17:00−1з41071100 0.1 10151165
20:00−3зюз41182100 0.1 1015696